When you browse on this site, cookies collect data to enhance your experience and personalize the content and advertising you see.
Visit our Privacy Policy to learn more. By continuing to use the site, you agree to this use of cookies and data.
  • In Hungary
  • List of Countries
  • For 7 days
  • Water Temperature
  • Satellite Maps
  • Weather Map
  • News
  • Weather Widgets
  • user-avatar
    Login

    Hourly Weather Zienki

    Today, 20 May, Monday

    Time Temperature Precipitation Wind Pressure Humidity
    00:00 +17°C° 0 mm 4 mps 741 mmHg 95%
    01:00 +17°C° 0 mm 4 mps 741 mmHg 95%
    02:00 +17°C° 0 mm 4 mps 741 mmHg 96%
    03:00 +17°C° 0.4 mm 4 mps 741 mmHg 97%
    04:00 +16°C° 0.4 mm 5 mps 740 mmHg 97%
    05:00 +16°C° 0.4 mm 5 mps 740 mmHg 97%
    06:00 +17°C° 0.1 mm 5 mps 740 mmHg 95%
    07:00 +19°C° 0.1 mm 6 mps 740 mmHg 92%
    08:00 +20°C° 0.1 mm 6 mps 740 mmHg 90%
    09:00 +21°C° 0 mm 6 mps 740 mmHg 87%
    10:00 +21°C° 0 mm 6 mps 740 mmHg 85%
    11:00 +22°C° 0 mm 5 mps 741 mmHg 82%
    12:00 +23°C° 0.8 mm 6 mps 740 mmHg 79%
    13:00 +24°C° 0.8 mm 6 mps 740 mmHg 77%
    14:00 +24°C° 0.8 mm 6 mps 740 mmHg 74%
    15:00 +23°C° 2.6 mm 5 mps 740 mmHg 78%
    16:00 +22°C° 2.6 mm 5 mps 740 mmHg 81%
    17:00 +21°C° 2.6 mm 4 mps 740 mmHg 85%
    18:00 +20°C° 0.9 mm 4 mps 740 mmHg 88%
    19:00 +19°C° 0.9 mm 3 mps 739 mmHg 90%
    20:00 +18°C° 0.9 mm 3 mps 739 mmHg 93%
    21:00 +18°C° 0 mm 3 mps 739 mmHg 93%
    22:00 +18°C° 0 mm 4 mps 739 mmHg 93%
    23:00 +17°C° 0 mm 4 mps 739 mmHg 93%

    Tomorrow, 21 May, Tuesday

    Time Temperature Precipitation Wind Pressure Humidity
    00:00 +17°C° 0.1 mm 4 mps 739 mmHg 94%
    01:00 +17°C° 0.1 mm 3 mps 739 mmHg 95%
    02:00 +16°C° 0.1 mm 2 mps 739 mmHg 95%
    03:00 +16°C° 0.4 mm 2 mps 739 mmHg 96%
    04:00 +16°C° 0.4 mm 2 mps 739 mmHg 96%
    05:00 +16°C° 0.4 mm 3 mps 738 mmHg 97%
    06:00 +17°C° 0 mm 3 mps 738 mmHg 93%
    07:00 +18°C° 0 mm 3 mps 738 mmHg 90%
    08:00 +19°C° 0 mm 4 mps 738 mmHg 87%
    09:00 +19°C° 0.4 mm 4 mps 738 mmHg 86%
    10:00 +19°C° 0.4 mm 4 mps 739 mmHg 85%
    11:00 +19°C° 0.4 mm 4 mps 739 mmHg 85%
    12:00 +19°C° 0.5 mm 4 mps 739 mmHg 85%
    13:00 +18°C° 0.5 mm 4 mps 739 mmHg 86%
    14:00 +18°C° 0.5 mm 4 mps 739 mmHg 86%
    15:00 +16°C° 0.1 mm 5 mps 739 mmHg 86%
    16:00 +16°C° 0.1 mm 6 mps 738 mmHg 85%
    17:00 +15°C° 0.1 mm 7 mps 738 mmHg 85%
    18:00 +15°C° 0 mm 6 mps 739 mmHg 85%
    19:00 +14°C° 0 mm 5 mps 739 mmHg 86%
    20:00 +13°C° 0 mm 4 mps 739 mmHg 87%
    21:00 +13°C° 0.1 mm 4 mps 739 mmHg 88%
    22:00 +13°C° 0.1 mm 4 mps 740 mmHg 89%
    23:00 +13°C° 0.1 mm 4 mps 740 mmHg 90%

    Day after tomorrow, 22 May, Wednesday

    Time Temperature Precipitation Wind Pressure Humidity
    00:00 +13°C° 0 mm 4 mps 740 mmHg 92%
    01:00 +12°C° 0 mm 3 mps 740 mmHg 93%
    02:00 +12°C° 0 mm 3 mps 740 mmHg 94%
    03:00 +11°C° 0 mm 3 mps 740 mmHg 95%
    04:00 +11°C° 0 mm 3 mps 740 mmHg 96%
    05:00 +11°C° 0 mm 3 mps 740 mmHg 96%
    06:00 +12°C° 0 mm 3 mps 740 mmHg 92%
    07:00 +14°C° 0 mm 3 mps 741 mmHg 89%
    08:00 +16°C° 0 mm 3 mps 741 mmHg 85%
    09:00 +17°C° 0 mm 4 mps 741 mmHg 81%
    10:00 +19°C° 0 mm 4 mps 741 mmHg 76%
    11:00 +20°C° 0 mm 4 mps 741 mmHg 72%
    12:00 +21°C° 0.1 mm 5 mps 741 mmHg 69%
    13:00 +21°C° 0.1 mm 5 mps 741 mmHg 66%
    14:00 +22°C° 0.1 mm 5 mps 741 mmHg 63%
    15:00 +22°C° 0.4 mm 5 mps 741 mmHg 65%
    16:00 +21°C° 0.4 mm 4 mps 741 mmHg 68%
    17:00 +21°C° 0.4 mm 4 mps 740 mmHg 70%
    18:00 +19°C° 0.4 mm 4 mps 740 mmHg 77%
    19:00 +18°C° 0.4 mm 3 mps 740 mmHg 83%
    20:00 +16°C° 0.4 mm 2 mps 740 mmHg 89%
    21:00 +16°C° 0 mm 2 mps 741 mmHg 91%
    22:00 +14°C° 0 mm 3 mps 741 mmHg 93%
    23:00 +13°C° 0 mm 3 mps 741 mmHg 95%

    23 May, Thursday

    Time Temperature Precipitation Wind Pressure Humidity
    00:00 +13°C° 0 mm 3 mps 741 mmHg 95%
    01:00 +13°C° 0 mm 3 mps 741 mmHg 96%
    02:00 +13°C° 0 mm 3 mps 741 mmHg 96%
    03:00 +13°C° 0 mm 3 mps 741 mmHg 96%
    04:00 +13°C° 0 mm 3 mps 741 mmHg 95%
    05:00 +13°C° 0 mm 3 mps 741 mmHg 95%
    06:00 +13°C° 0 mm 3 mps 741 mmHg 93%
    07:00 +13°C° 0 mm 3 mps 741 mmHg 91%
    08:00 +14°C° 0 mm 4 mps 741 mmHg 90%
    09:00 +14°C° 0 mm 4 mps 742 mmHg 88%
    10:00 +16°C° 0 mm 3 mps 742 mmHg 86%
    11:00 +16°C° 0 mm 3 mps 742 mmHg 84%
    12:00 +16°C° 0.1 mm 3 mps 742 mmHg 83%
    13:00 +17°C° 0.1 mm 2 mps 742 mmHg 83%
    14:00 +18°C° 0.1 mm 1 mps 742 mmHg 82%
    15:00 +18°C° 0.2 mm 2 mps 742 mmHg 80%
    16:00 +18°C° 0.2 mm 2 mps 742 mmHg 79%
    17:00 +19°C° 0.2 mm 3 mps 743 mmHg 77%
    18:00 +18°C° 0.7 mm 4 mps 743 mmHg 82%
    19:00 +16°C° 0.7 mm 5 mps 743 mmHg 87%
    20:00 +14°C° 0.7 mm 6 mps 743 mmHg 93%
    21:00 +14°C° 0.1 mm 5 mps 743 mmHg 93%
    22:00 +13°C° 0.1 mm 5 mps 743 mmHg 94%
    23:00 +13°C° 0.1 mm 5 mps 743 mmHg 95%

    24 May, Friday

    Time Temperature Precipitation Wind Pressure Humidity
    00:00 +12°C° 0.1 mm 5 mps 743 mmHg 94%
    01:00 +10°C° 0.1 mm 5 mps 743 mmHg 94%
    02:00 +10°C° 0.1 mm 6 mps 743 mmHg 94%
    03:00 +9°C° 0.1 mm 5 mps 743 mmHg 93%
    04:00 +8°C° 0.1 mm 5 mps 743 mmHg 93%
    05:00 +8°C° 0.1 mm 5 mps 743 mmHg 92%
    06:00 +8°C° 0 mm 5 mps 743 mmHg 91%
    07:00 +8°C° 0 mm 5 mps 743 mmHg 90%
    08:00 +9°C° 0 mm 5 mps 743 mmHg 89%
    09:00 +10°C° 0 mm 4 mps 743 mmHg 88%
    10:00 +10°C° 0 mm 4 mps 743 mmHg 87%
    11:00 +11°C° 0 mm 4 mps 743 mmHg 86%
    12:00 +11°C° 0.1 mm 3 mps 743 mmHg 86%
    13:00 +11°C° 0.1 mm 3 mps 743 mmHg 86%
    14:00 +11°C° 0.1 mm 3 mps 743 mmHg 87%
    15:00 +12°C° 0 mm 3 mps 742 mmHg 84%
    16:00 +13°C° 0 mm 3 mps 742 mmHg 82%
    17:00 +14°C° 0 mm 3 mps 742 mmHg 80%
    18:00 +14°C° 0 mm 3 mps 741 mmHg 83%
    19:00 +14°C° 0 mm 2 mps 741 mmHg 86%
    20:00 +13°C° 0 mm 2 mps 741 mmHg 89%
    21:00 +13°C° 0 mm 2 mps 741 mmHg 89%
    22:00 +12°C° 0 mm 2 mps 741 mmHg 90%
    23:00 +12°C° 0 mm 2 mps 741 mmHg 91%

    25 May, Saturday

    Time Temperature Precipitation Wind Pressure Humidity
    00:00 +12°C° 0 mm 2 mps 741 mmHg 89%
    01:00 +12°C° 0 mm 2 mps 741 mmHg 87%
    02:00 +13°C° 0 mm 2 mps 741 mmHg 86%
    03:00 +12°C° 0 mm 2 mps 741 mmHg 89%
    04:00 +12°C° 0 mm 2 mps 741 mmHg 92%
    05:00 +10°C° 0 mm 2 mps 740 mmHg 94%
    06:00 +13°C° 0 mm 2 mps 741 mmHg 90%
    07:00 +14°C° 0 mm 2 mps 741 mmHg 85%
    08:00 +15°C° 0 mm 2 mps 741 mmHg 80%
    09:00 +17°C° 0 mm 2 mps 741 mmHg 74%
    10:00 +18°C° 0 mm 3 mps 741 mmHg 69%
    11:00 +20°C° 0 mm 3 mps 741 mmHg 63%
    12:00 +20°C° 0.1 mm 3 mps 740 mmHg 62%
    13:00 +21°C° 0.1 mm 4 mps 740 mmHg 61%
    14:00 +21°C° 0.1 mm 4 mps 740 mmHg 59%
    15:00 +21°C° 0 mm 4 mps 740 mmHg 60%
    16:00 +21°C° 0 mm 4 mps 740 mmHg 61%
    17:00 +21°C° 0 mm 4 mps 740 mmHg 62%
    18:00 +19°C° 0 mm 4 mps 740 mmHg 68%
    19:00 +18°C° 0 mm 3 mps 740 mmHg 74%
    20:00 +16°C° 0 mm 3 mps 740 mmHg 81%
    21:00 +14°C° 0 mm 3 mps 740 mmHg 82%
    22:00 +13°C° 0 mm 3 mps 741 mmHg 83%
    23:00 +12°C° 0 mm 3 mps 741 mmHg 84%
    Show more